| time (UTC) | temp C | wind direction | speed KPH | gust KPH | rain 1hr cm | rain 24hr cm | rain mn cm | humidity % | barometer mb |
| 20260904193522 | 34 | 0 | 0.0 | 3.2 | 0.00 | 0.00 | 0.00 | 73 | 1012.7 |
| 20260904193039 | 34 | 0 | 0.0 | 3.2 | 0.00 | 0.00 | 0.00 | 72 | 1012.8 |
| 20260904192520 | 34 | 194 | 0.0 | 3.2 | 0.00 | 0.00 | 0.00 | 71 | 1012.8 |
| 20260904192021 | 34 | 244 | 1.6 | 3.2 | 0.00 | 0.00 | 0.00 | 69 | 1012.9 |
| 20260904191545 | 35 | 0 | 0.0 | 0.0 | 0.00 | 0.00 | 0.00 | 70 | 1013.0 |
| 20260904191021 | 35 | 0 | 0.0 | 0.0 | 0.00 | 0.00 | 0.00 | 72 | 1013.0 |
| 20260904190521 | 35 | 0 | 0.0 | 0.0 | 0.00 | 0.00 | 0.00 | 72 | 1013.1 |
| 20260904190047 | 35 | 0 | 0.0 | 0.0 | 0.00 | 0.00 | 0.00 | 69 | 1013.1 |
| 20260904185519 | 35 | 0 | 0.0 | 1.6 | 0.00 | 0.00 | 0.00 | 70 | 1013.3 |
| 20260904185022 | 35 | 0 | 0.0 | 3.2 | 0.00 | 0.00 | 0.00 | 68 | 1013.4 |
| 20260904184549 | 35 | 241 | 0.0 | 3.2 | 0.00 | 0.00 | 0.00 | 69 | 1013.5 |
| 20260904184021 | 35 | 0 | 0.0 | 3.2 | 0.00 | 0.00 | 0.00 | 74 | 1013.5 |
| 20260904183521 | 35 | 245 | 0.0 | 3.2 | 0.00 | 0.00 | 0.00 | 70 | 1013.6 |
| 20260904183045 | 35 | 211 | 0.0 | 3.2 | 0.00 | 0.00 | 0.00 | 70 | 1013.7 |
| 20260904182520 | 35 | 0 | 0.0 | 3.2 | 0.00 | 0.00 | 0.00 | 71 | 1013.8 |
| 20260904182028 | 34 | 0 | 0.0 | 3.2 | 0.00 | 0.00 | 0.00 | 74 | 1013.8 |
| 20260904181540 | 34 | 240 | 0.0 | 3.2 | 0.00 | 0.00 | 0.00 | 73 | 1013.8 |
| 20260904181018 | 34 | 0 | 0.0 | 3.2 | 0.00 | 0.00 | 0.00 | 74 | 1013.8 |
| 20260904180518 | 34 | 190 | 1.6 | 3.2 | 0.00 | 0.00 | 0.00 | 74 | 1013.9 |
| 20260904180043 | 33 | 257 | 0.0 | 1.6 | 0.00 | 0.00 | 0.00 | 79 | 1014.0 |
| 20260904175519 | 33 | 0 | 0.0 | 1.6 | 0.00 | 0.00 | 0.00 | 83 | 1014.2 |
| 20260904175018 | 32 | 0 | 0.0 | 1.6 | 0.00 | 0.00 | 0.00 | 80 | 1014.2 |
| 20260904174543 | 32 | 0 | 0.0 | 0.0 | 0.00 | 0.00 | 0.00 | 81 | 1014.3 |
| 20260904174020 | 32 | 0 | 0.0 | 1.6 | 0.00 | 0.00 | 0.00 | 80 | 1014.4 |
| 20260904173521 | 33 | 0 | 0.0 | 1.6 | 0.00 | 0.00 | 0.00 | 78 | 1014.4 |
| 20260904173042 | 33 | 0 | 0.0 | 1.6 | 0.00 | 0.00 | 0.00 | 79 | 1014.4 |
| 20260904172518 | 33 | 0 | 0.0 | 1.6 | 0.00 | 0.00 | 0.00 | 78 | 1014.4 |
| 20260904172019 | 33 | 236 | 0.0 | 1.6 | 0.00 | 0.00 | 0.00 | 80 | 1014.4 |
| 20260904171543 | 32 | 0 | 0.0 | 0.0 | 0.00 | 0.00 | 0.00 | 79 | 1014.5 |
| 20260904171018 | 32 | 0 | 0.0 | 1.6 | 0.00 | 0.00 | 0.00 | 78 | 1014.5 |
| 20260904170519 | 32 | 0 | 0.0 | 1.6 | 0.00 | 0.00 | 0.00 | 79 | 1014.6 |
| 20260904170044 | 32 | 0 | 0.0 | 0.0 | 0.00 | 0.00 | 0.00 | 80 | 1014.7 |
| 20260904165521 | 33 | 0 | 0.0 | 0.0 | 0.00 | 0.00 | 0.00 | 78 | 1014.7 |
| 20260904165021 | 33 | 0 | 0.0 | 6.4 | 0.00 | 0.00 | 0.00 | 76 | 1014.9 |
| 20260904164538 | 33 | 0 | 0.0 | 6.4 | 0.00 | 0.00 | 0.00 | 75 | 1014.8 |
| 20260904164021 | 33 | 250 | 0.0 | 6.4 | 0.00 | 0.00 | 0.00 | 73 | 1014.9 |
| 20260904163522 | 33 | 217 | 0.0 | 6.4 | 0.00 | 0.00 | 0.00 | 73 | 1015.0 |
| 20260904163037 | 33 | 0 | 0.0 | 4.8 | 0.00 | 0.00 | 0.00 | 74 | 1015.1 |
| 20260904162523 | 32 | 0 | 0.0 | 4.8 | 0.00 | 0.00 | 0.00 | 77 | 1015.1 |
| 20260904162020 | 32 | 0 | 0.0 | 4.8 | 0.00 | 0.00 | 0.00 | 79 | 1014.9 |
| 20260904161539 | 32 | 0 | 0.0 | 1.6 | 0.00 | 0.00 | 0.00 | 78 | 1015.0 |
| 20260904161017 | 32 | 0 | 0.0 | 4.8 | 0.00 | 0.00 | 0.00 | 78 | 1015.1 |
| 20260904160521 | 33 | 0 | 0.0 | 4.8 | 0.00 | 0.00 | 0.00 | 78 | 1015.2 |
| 20260904160038 | 33 | 0 | 0.0 | 4.8 | 0.00 | 0.00 | 0.00 | 77 | 1015.2 |
| 20260904155527 | 33 | 218 | 0.0 | 3.2 | 0.00 | 0.13 | 0.00 | 79 | 1015.2 |
| 20260904155020 | 32 | 0 | 0.0 | 4.8 | 0.00 | 0.13 | 0.00 | 79 | 1015.2 |
| 20260904154544 | 32 | 0 | 0.0 | 4.8 | 0.00 | 0.13 | 0.00 | 79 | 1015.3 |
| 20260904154022 | 32 | 0 | 0.0 | 1.6 | 0.00 | 0.13 | 0.00 | 80 | 1015.4 |
| 20260904153520 | 32 | 0 | 0.0 | 1.6 | 0.00 | 0.13 | 0.00 | 78 | 1015.4 |
| 20260904153050 | 32 | 0 | 0.0 | 3.2 | 0.00 | 0.13 | 0.00 | 82 | 1015.4 |
| 20260904152523 | 31 | 0 | 0.0 | 3.2 | 0.00 | 0.13 | 0.00 | 83 | 1015.4 |
| 20260904152019 | 31 | 228 | 0.0 | 4.8 | 0.00 | 0.13 | 0.00 | 83 | 1015.4 |
| 20260904151539 | 31 | 0 | 0.0 | 4.8 | 0.00 | 0.13 | 0.00 | 84 | 1015.3 |
| 20260904151016 | 32 | 273 | 0.0 | 4.8 | 0.00 | 0.13 | 0.00 | 83 | 1015.4 |
| 20260904150517 | 32 | 258 | 0.0 | 3.2 | 0.00 | 0.13 | 0.00 | 84 | 1015.3 |
| 20260904150037 | 31 | 0 | 0.0 | 3.2 | 0.00 | 0.13 | 0.00 | 83 | 1015.4 |
| 20260904145520 | 31 | 0 | 0.0 | 0.0 | 0.00 | 1.40 | 0.00 | 84 | 1015.2 |
| 20260904145020 | 31 | 0 | 0.0 | 4.8 | 0.00 | 1.40 | 0.00 | 83 | 1015.1 |
| 20260904144542 | 31 | 0 | 0.0 | 4.8 | 0.00 | 1.40 | 0.00 | 85 | 1015.1 |
| 20260904144024 | 31 | 0 | 0.0 | 4.8 | 0.00 | 1.40 | 0.00 | 85 | 1015.3 |
| 20260904143519 | 31 | 248 | 0.0 | 3.2 | 0.00 | 1.40 | 0.00 | 84 | 1015.3 |
| 20260904143040 | 31 | 0 | 0.0 | 3.2 | 0.00 | 1.40 | 0.00 | 86 | 1015.4 |
| 20260904142521 | 30 | 70 | 0.0 | 1.6 | 0.00 | 1.40 | 0.00 | 86 | 1015.3 |
| 20260904142023 | 30 | 0 | 0.0 | 1.6 | 0.00 | 1.40 | 0.00 | 87 | 1015.1 |
| 20260904141540 | 30 | 0 | 0.0 | 1.6 | 0.00 | 1.40 | 0.00 | 87 | 1015.1 |
| 20260904141019 | 30 | 240 | 0.0 | 1.6 | 0.00 | 1.40 | 0.00 | 87 | 1014.9 |
| 20260904140517 | 30 | 0 | 0.0 | 1.6 | 0.00 | 1.40 | 0.00 | 88 | 1014.6 |
| 20260904140051 | 30 | 228 | 0.0 | 1.6 | 0.00 | 1.40 | 0.00 | 87 | 1014.6 |
| 20260904135521 | 30 | 0 | 0.0 | 0.0 | 0.00 | 1.40 | 0.00 | 88 | 1014.6 |
| 20260904135021 | 30 | 0 | 0.0 | 0.0 | 0.00 | 1.40 | 0.00 | 89 | 1014.7 |
| 20260904134540 | 29 | 0 | 0.0 | 0.0 | 0.00 | 1.40 | 0.00 | 92 | 1014.8 |
| 20260904134019 | 29 | 0 | 0.0 | 0.0 | 0.00 | 1.40 | 0.00 | 92 | 1014.7 |
| 20260904133521 | 28 | 0 | 0.0 | 0.0 | 0.00 | 1.40 | 0.00 | 92 | 1014.8 |
| 20260904133039 | 28 | 0 | 0.0 | 0.0 | 0.00 | 1.40 | 0.00 | 95 | 1014.7 |
| 20260904132520 | 28 | 0 | 0.0 | 0.0 | 0.00 | 1.40 | 0.00 | 97 | 1014.7 |
| 20260904132026 | 28 | 0 | 0.0 | 0.0 | 0.00 | 1.40 | 0.00 | 99 | 1014.7 |
| 20260904131540 | 27 | 0 | 0.0 | 1.6 | 0.00 | 1.40 | 0.00 | 100 | 1014.8 |
| 20260904131020 | 26 | 0 | 0.0 | 1.6 | 0.00 | 1.40 | 0.00 | 100 | 1014.7 |
| 20260904130522 | 26 | 0 | 0.0 | 1.6 | 0.00 | 1.40 | 0.00 | 100 | 1014.8 |
| 20260904130042 | 26 | 0 | 0.0 | 0.0 | 0.00 | 1.40 | 0.00 | 100 | 1014.7 |
| 20260904125516 | 26 | 0 | 0.0 | 0.0 | 0.00 | 1.40 | 0.00 | 100 | 1014.9 |
| 20260904125021 | 26 | 0 | 0.0 | 1.6 | 0.00 | 1.40 | 0.00 | 100 | 1014.9 |
| 20260904124535 | 25 | 0 | 0.0 | 1.6 | 0.00 | 1.40 | 0.00 | 100 | 1014.9 |
| 20260904124019 | 25 | 301 | 0.0 | 0.0 | 0.00 | 1.40 | 0.00 | 100 | 1015.0 |
| 20260904123519 | 25 | 0 | 0.0 | 0.0 | 0.00 | 1.40 | 0.00 | 100 | 1014.8 |
| 20260904123040 | 25 | 0 | 0.0 | 0.0 | 0.00 | 1.40 | 0.00 | 100 | 1014.8 |
| 20260904122522 | 25 | 0 | 0.0 | 0.0 | 0.00 | 1.40 | 0.00 | 100 | 1014.7 |
| 20260904122023 | 25 | 0 | 0.0 | 0.0 | 0.00 | 1.40 | 0.00 | 100 | 1014.7 |
| 20260904121541 | 24 | 0 | 0.0 | 0.0 | 0.00 | 1.40 | 0.00 | 100 | 1014.6 |
| 20260904121023 | 24 | 0 | 0.0 | 0.0 | 0.00 | 1.40 | 0.00 | 100 | 1014.5 |
| 20260904120520 | 23 | 0 | 0.0 | 0.0 | 0.00 | 1.40 | 0.00 | 100 | 1014.6 |
| 20260904120044 | 23 | 0 | 0.0 | 0.0 | 0.00 | 1.40 | 0.00 | 100 | 1014.5 |
| 20260904115522 | 23 | 0 | 0.0 | 0.0 | 0.00 | 1.40 | 0.00 | 100 | 1014.4 |
| 20260904115021 | 23 | 0 | 0.0 | 0.0 | 0.00 | 1.40 | 0.00 | 100 | 1014.4 |
| 20260904114542 | 23 | 0 | 0.0 | 0.0 | 0.00 | 1.40 | 0.00 | 100 | 1014.4 |
| 20260904114020 | 23 | 0 | 0.0 | 0.0 | 0.00 | 1.40 | 0.00 | 100 | 1014.3 |
| 20260904113522 | 23 | 0 | 0.0 | 0.0 | 0.00 | 1.40 | 0.00 | 100 | 1014.3 |
| 20260904113038 | 23 | 0 | 0.0 | 0.0 | 0.00 | 1.40 | 0.00 | 100 | 1014.3 |
| 20260904112520 | 23 | 0 | 0.0 | 0.0 | 0.00 | 1.40 | 0.00 | 100 | 1014.2 |
| 20260904112021 | 23 | 0 | 0.0 | 0.0 | 0.00 | 1.40 | 0.00 | 100 | 1014.2 |
| 20260904111540 | 23 | 0 | 0.0 | 0.0 | 0.00 | 1.40 | 0.00 | 100 | 1014.0 |
| 20260904111019 | 23 | 0 | 0.0 | 0.0 | 0.00 | 1.40 | 0.00 | 100 | 1014.0 |
| 20260904110520 | 23 | 0 | 0.0 | 0.0 | 0.00 | 1.40 | 0.00 | 100 | 1013.9 |
| 20260904110043 | 23 | 0 | 0.0 | 0.0 | 0.00 | 1.40 | 0.00 | 100 | 1013.8 |
| 20260904105521 | 23 | 0 | 0.0 | 0.0 | 0.00 | 1.40 | 0.00 | 100 | 1013.8 |
| 20260904105020 | 23 | 0 | 0.0 | 0.0 | 0.00 | 1.40 | 0.00 | 100 | 1013.6 |
| 20260904104536 | 23 | 0 | 0.0 | 0.0 | 0.00 | 1.40 | 0.00 | 100 | 1013.6 |
| 20260904104023 | 23 | 0 | 0.0 | 0.0 | 0.00 | 1.40 | 0.00 | 100 | 1013.6 |
| 20260904103520 | 23 | 0 | 0.0 | 0.0 | 0.00 | 1.40 | 0.00 | 100 | 1013.6 |
| 20260904103036 | 23 | 0 | 0.0 | 0.0 | 0.00 | 1.40 | 0.00 | 100 | 1013.5 |
| 20260904102520 | 23 | 0 | 0.0 | 0.0 | 0.00 | 1.40 | 0.00 | 100 | 1013.5 |
| 20260904102020 | 23 | 0 | 0.0 | 0.0 | 0.00 | 1.40 | 0.00 | 100 | 1013.5 |
| 20260904101536 | 23 | 0 | 0.0 | 0.0 | 0.00 | 1.40 | 0.00 | 100 | 1013.4 |
| 20260904101020 | 23 | 0 | 0.0 | 0.0 | 0.00 | 1.40 | 0.00 | 100 | 1013.3 |
| 20260904100519 | 23 | 0 | 0.0 | 0.0 | 0.00 | 1.40 | 0.00 | 100 | 1013.4 |
| 20260904100042 | 23 | 0 | 0.0 | 0.0 | 0.00 | 1.40 | 0.00 | 100 | 1013.3 |
| 20260904095519 | 23 | 0 | 0.0 | 0.0 | 0.00 | 1.40 | 0.00 | 100 | 1013.3 |
| 20260904095018 | 23 | 0 | 0.0 | 0.0 | 0.00 | 1.40 | 0.00 | 100 | 1013.3 |
| 20260904094544 | 23 | 0 | 0.0 | 0.0 | 0.00 | 1.40 | 0.00 | 100 | 1013.3 |
| 20260904094020 | 23 | 0 | 0.0 | 0.0 | 0.00 | 1.40 | 0.00 | 100 | 1013.2 |
| 20260904093521 | 23 | 0 | 0.0 | 0.0 | 0.00 | 1.40 | 0.00 | 100 | 1013.2 |
| 20260904093045 | 23 | 0 | 0.0 | 0.0 | 0.00 | 1.40 | 0.00 | 100 | 1013.2 |
| 20260904092519 | 23 | 0 | 0.0 | 0.0 | 0.00 | 1.40 | 0.00 | 100 | 1013.2 |
| 20260904092018 | 23 | 0 | 0.0 | 0.0 | 0.00 | 1.40 | 0.00 | 100 | 1013.1 |
| 20260904091538 | 24 | 0 | 0.0 | 0.0 | 0.00 | 1.40 | 0.00 | 100 | 1013.2 |
| 20260904091023 | 24 | 0 | 0.0 | 0.0 | 0.00 | 1.40 | 0.00 | 100 | 1013.1 |
| 20260904090519 | 24 | 0 | 0.0 | 0.0 | 0.00 | 1.40 | 0.00 | 100 | 1013.1 |
| 20260904090038 | 24 | 0 | 0.0 | 0.0 | 0.00 | 1.40 | 0.00 | 100 | 1013.1 |
| 20260904085520 | 23 | 0 | 0.0 | 0.0 | 0.00 | 1.40 | 0.00 | 100 | 1013.1 |
| 20260904085020 | 23 | 0 | 0.0 | 0.0 | 0.00 | 1.40 | 0.00 | 100 | 1013.1 |
| 20260904084538 | 24 | 0 | 0.0 | 0.0 | 0.00 | 1.40 | 0.00 | 100 | 1013.2 |
| 20260904084018 | 24 | 0 | 0.0 | 0.0 | 0.00 | 1.40 | 0.00 | 100 | 1013.2 |
| 20260904083519 | 24 | 0 | 0.0 | 0.0 | 0.00 | 1.40 | 0.00 | 100 | 1013.2 |
| 20260904083039 | 24 | 0 | 0.0 | 0.0 | 0.00 | 1.40 | 0.00 | 100 | 1013.3 |
| 20260904082518 | 24 | 0 | 0.0 | 0.0 | 0.00 | 1.40 | 0.00 | 100 | 1013.3 |
| 20260904082018 | 24 | 0 | 0.0 | 0.0 | 0.00 | 1.40 | 0.00 | 100 | 1013.2 |
| 20260904081538 | 24 | 0 | 0.0 | 0.0 | 0.00 | 1.40 | 0.00 | 100 | 1013.3 |
| 20260904081021 | 24 | 0 | 0.0 | 0.0 | 0.00 | 1.40 | 0.00 | 100 | 1013.3 |
| 20260904080522 | 24 | 0 | 0.0 | 0.0 | 0.00 | 1.40 | 0.00 | 100 | 1013.1 |
| 20260904080035 | 24 | 0 | 0.0 | 0.0 | 0.00 | 1.40 | 0.00 | 100 | 1013.1 |
| 20260904075525 | 24 | 0 | 0.0 | 0.0 | 0.00 | 1.40 | 0.00 | 100 | 1013.1 |
| 20260904075020 | 24 | 0 | 0.0 | 0.0 | 0.00 | 1.40 | 0.00 | 100 | 1013.0 |
| 20260904074538 | 24 | 0 | 0.0 | 0.0 | 0.00 | 1.40 | 0.00 | 100 | 1013.0 |
| 20260904074022 | 24 | 0 | 0.0 | 0.0 | 0.00 | 1.40 | 0.00 | 100 | 1012.8 |
| 20260904073521 | 24 | 0 | 0.0 | 0.0 | 0.00 | 1.40 | 0.00 | 100 | 1012.9 |
| 20260904073040 | 24 | 0 | 0.0 | 0.0 | 0.00 | 1.40 | 0.00 | 100 | 1012.9 |
| 20260904072521 | 24 | 0 | 0.0 | 0.0 | 0.00 | 1.40 | 0.00 | 100 | 1013.0 |
| 20260904072019 | 24 | 0 | 0.0 | 0.0 | 0.00 | 1.40 | 0.00 | 100 | 1013.0 |
| 20260904071539 | 24 | 0 | 0.0 | 0.0 | 0.00 | 1.40 | 0.00 | 100 | 1012.9 |
| 20260904071020 | 24 | 0 | 0.0 | 0.0 | 0.00 | 1.40 | 0.00 | 100 | 1013.0 |
| 20260904070521 | 24 | 0 | 0.0 | 0.0 | 0.00 | 1.40 | 0.00 | 100 | 1012.9 |
| 20260904070045 | 24 | 0 | 0.0 | 0.0 | 0.00 | 1.40 | 0.00 | 100 | 1012.9 |
| 20260904065523 | 24 | 0 | 0.0 | 0.0 | 0.00 | 1.40 | 0.00 | 100 | 1013.0 |
| 20260904065019 | 24 | 0 | 0.0 | 0.0 | 0.00 | 1.40 | 0.00 | 100 | 1013.0 |
| 20260904064542 | 25 | 0 | 0.0 | 0.0 | 0.00 | 1.40 | 0.00 | 100 | 1013.0 |
| 20260904064018 | 25 | 0 | 0.0 | 0.0 | 0.00 | 1.40 | 0.00 | 100 | 1013.0 |
| 20260904063521 | 25 | 0 | 0.0 | 0.0 | 0.00 | 1.40 | 0.00 | 100 | 1013.1 |
| 20260904063043 | 25 | 0 | 0.0 | 0.0 | 0.00 | 1.40 | 0.00 | 100 | 1013.1 |
| 20260904062522 | 25 | 0 | 0.0 | 0.0 | 0.00 | 1.40 | 0.00 | 100 | 1013.2 |
| 20260904062019 | 25 | 0 | 0.0 | 0.0 | 0.00 | 1.40 | 0.00 | 100 | 1013.3 |
| 20260904061544 | 25 | 0 | 0.0 | 0.0 | 0.00 | 1.40 | 0.00 | 100 | 1013.3 |
| 20260904061025 | 25 | 0 | 0.0 | 0.0 | 0.00 | 1.40 | 0.00 | 100 | 1013.5 |
| 20260904060521 | 25 | 0 | 0.0 | 0.0 | 0.00 | 1.40 | 0.00 | 100 | 1013.5 |
| 20260904060100 | 25 | 0 | 0.0 | 0.0 | 0.00 | 1.40 | 0.00 | 100 | 1013.5 |
| 20260904055520 | 25 | 0 | 0.0 | 0.0 | 0.00 | 1.40 | 0.00 | 100 | 1013.6 |
| 20260904055020 | 25 | 0 | 0.0 | 0.0 | 0.00 | 1.40 | 0.00 | 100 | 1013.7 |
| 20260904054542 | 25 | 0 | 0.0 | 0.0 | 0.00 | 1.40 | 0.00 | 100 | 1013.8 |
| 20260904054024 | 25 | 0 | 0.0 | 0.0 | 0.00 | 1.40 | 0.00 | 100 | 1013.8 |
| 20260904053520 | 25 | 0 | 0.0 | 0.0 | 0.00 | 1.40 | 0.00 | 100 | 1013.8 |
| 20260904053041 | 25 | 0 | 0.0 | 0.0 | 0.00 | 1.40 | 0.00 | 100 | 1013.9 |
| 20260904052519 | 25 | 0 | 0.0 | 0.0 | 0.00 | 1.40 | 0.00 | 100 | 1013.9 |
| 20260904052021 | 25 | 0 | 0.0 | 0.0 | 0.00 | 1.40 | 0.00 | 100 | 1013.9 |
| 20260904051541 | 25 | 0 | 0.0 | 0.0 | 0.00 | 1.40 | 0.00 | 100 | 1014.0 |
| 20260904051023 | 25 | 0 | 0.0 | 0.0 | 0.00 | 1.40 | 0.00 | 100 | 1014.0 |
| 20260904050520 | 25 | 0 | 0.0 | 0.0 | 0.00 | 1.40 | 0.00 | 100 | 1014.0 |
| 20260904050047 | 25 | 0 | 0.0 | 0.0 | 0.00 | 1.40 | 0.00 | 100 | 1014.1 |
| 20260904045520 | 25 | 0 | 0.0 | 0.0 | 0.00 | 1.40 | 0.00 | 100 | 1014.2 |
| 20260904045021 | 25 | 0 | 0.0 | 0.0 | 0.00 | 1.40 | 0.00 | 100 | 1014.1 |
| 20260904044606 | 25 | 0 | 0.0 | 0.0 | 0.00 | 1.40 | 0.00 | 100 | 1014.1 |
| 20260904044020 | 25 | 0 | 0.0 | 0.0 | 0.00 | 1.40 | 0.00 | 100 | 1014.1 |
| 20260904043521 | 25 | 0 | 0.0 | 0.0 | 0.00 | 1.40 | 0.00 | 100 | 1014.1 |
| 20260904043037 | 25 | 0 | 0.0 | 0.0 | 0.00 | 1.40 | 0.00 | 100 | 1014.1 |
| 20260904042520 | 25 | 0 | 0.0 | 0.0 | 0.00 | 1.40 | 0.00 | 100 | 1014.1 |
| 20260904042018 | 25 | 0 | 0.0 | 0.0 | 0.00 | 1.40 | 0.00 | 100 | 1014.0 |
| 20260904041541 | 25 | 0 | 0.0 | 0.0 | 0.00 | 1.40 | 0.00 | 100 | 1014.0 |
| 20260904041020 | 25 | 0 | 0.0 | 0.0 | 0.00 | 1.40 | 0.00 | 100 | 1013.9 |
| 20260904040521 | 25 | 0 | 0.0 | 0.0 | 0.00 | 1.40 | 0.00 | 100 | 1014.0 |
| 20260904040043 | 25 | 0 | 0.0 | 0.0 | 0.00 | 1.40 | 0.00 | 100 | 1014.0 |
| 20260904035520 | 25 | 0 | 0.0 | 0.0 | 0.00 | 1.40 | 1.40 | 100 | 1013.9 |
| 20260904035023 | 25 | 0 | 0.0 | 0.0 | 0.00 | 1.40 | 1.40 | 100 | 1014.0 |
| 20260904034544 | 25 | 0 | 0.0 | 0.0 | 0.00 | 1.40 | 1.40 | 100 | 1014.0 |
| 20260904034019 | 25 | 0 | 0.0 | 0.0 | 0.00 | 1.40 | 1.40 | 100 | 1014.0 |
| 20260904033519 | 25 | 0 | 0.0 | 0.0 | 0.00 | 1.40 | 1.40 | 100 | 1014.1 |
| 20260904033041 | 25 | 0 | 0.0 | 0.0 | 0.00 | 1.40 | 1.40 | 100 | 1014.1 |
| 20260904032519 | 25 | 0 | 0.0 | 0.0 | 0.00 | 1.40 | 1.40 | 100 | 1013.9 |
| 20260904032021 | 25 | 0 | 0.0 | 0.0 | 0.00 | 1.40 | 1.40 | 100 | 1013.9 |
| 20260904031536 | 25 | 0 | 0.0 | 0.0 | 0.00 | 1.40 | 1.40 | 100 | 1014.0 |
| 20260904031019 | 25 | 0 | 0.0 | 0.0 | 0.00 | 1.40 | 1.40 | 100 | 1014.0 |
| 20260904030519 | 25 | 0 | 0.0 | 0.0 | 0.00 | 1.40 | 1.40 | 100 | 1014.0 |
| 20260904030038 | 25 | 0 | 0.0 | 0.0 | 0.00 | 1.40 | 1.40 | 100 | 1013.9 |
| 20260904025521 | 25 | 0 | 0.0 | 0.0 | 0.00 | 1.40 | 1.40 | 100 | 1013.9 |
| 20260904025019 | 25 | 0 | 0.0 | 0.0 | 0.00 | 1.40 | 1.40 | 100 | 1013.9 |
| 20260904024541 | 25 | 0 | 0.0 | 0.0 | 0.00 | 1.40 | 1.40 | 100 | 1013.9 |
| 20260904024020 | 26 | 0 | 0.0 | 0.0 | 0.00 | 1.40 | 1.40 | 100 | 1013.8 |
| 20260904023519 | 26 | 0 | 0.0 | 0.0 | 0.00 | 1.40 | 1.40 | 100 | 1013.9 |
| 20260904023040 | 26 | 0 | 0.0 | 0.0 | 0.00 | 1.40 | 1.40 | 100 | 1013.7 |
| 20260904022521 | 26 | 0 | 0.0 | 0.0 | 0.00 | 1.40 | 1.40 | 100 | 1013.7 |
| 20260904022020 | 26 | 0 | 0.0 | 0.0 | 0.00 | 1.40 | 1.40 | 100 | 1013.7 |
| 20260904021548 | 26 | 0 | 0.0 | 0.0 | 0.00 | 1.40 | 1.40 | 100 | 1013.7 |
| 20260904021021 | 26 | 0 | 0.0 | 0.0 | 0.00 | 1.40 | 1.40 | 100 | 1013.7 |
| 20260904020523 | 26 | 0 | 0.0 | 0.0 | 0.00 | 1.40 | 1.40 | 100 | 1013.7 |
| 20260904020042 | 26 | 0 | 0.0 | 0.0 | 0.00 | 1.40 | 1.40 | 99 | 1013.7 |
| 20260904015521 | 26 | 0 | 0.0 | 0.0 | 0.00 | 1.40 | 1.40 | 99 | 1013.7 |
| 20260904015024 | 26 | 0 | 0.0 | 0.0 | 0.00 | 1.40 | 1.40 | 99 | 1013.8 |
| 20260904014545 | 26 | 0 | 0.0 | 0.0 | 0.00 | 1.40 | 1.40 | 99 | 1013.8 |
| 20260904014019 | 26 | 0 | 0.0 | 0.0 | 0.00 | 1.40 | 1.40 | 99 | 1013.8 |
| 20260904013518 | 26 | 0 | 0.0 | 0.0 | 0.00 | 1.40 | 1.40 | 99 | 1013.7 |
| 20260904013059 | 26 | 0 | 0.0 | 0.0 | 0.00 | 1.40 | 1.40 | 99 | 1013.6 |
| 20260904012521 | 26 | 0 | 0.0 | 0.0 | 0.00 | 1.40 | 1.40 | 98 | 1013.6 |
| 20260904012021 | 26 | 0 | 0.0 | 0.0 | 0.00 | 1.40 | 1.40 | 99 | 1013.5 |
| 20260904011542 | 26 | 0 | 0.0 | 0.0 | 0.00 | 1.40 | 1.40 | 98 | 1013.5 |
| 20260904011020 | 26 | 0 | 0.0 | 0.0 | 0.00 | 1.40 | 1.40 | 98 | 1013.6 |
| 20260904010519 | 26 | 0 | 0.0 | 0.0 | 0.00 | 1.40 | 1.40 | 98 | 1013.6 |
| 20260904010040 | 26 | 0 | 0.0 | 0.0 | 0.00 | 1.40 | 1.40 | 98 | 1013.6 |
| 20260904005519 | 26 | 0 | 0.0 | 0.0 | 0.00 | 1.40 | 1.40 | 97 | 1013.7 |
| 20260904005020 | 26 | 0 | 0.0 | 1.6 | 0.00 | 1.40 | 1.40 | 97 | 1013.7 |
| 20260904004539 | 26 | 0 | 0.0 | 1.6 | 0.00 | 1.40 | 1.40 | 97 | 1013.7 |
| 20260904004021 | 26 | 0 | 0.0 | 1.6 | 0.00 | 1.40 | 1.40 | 97 | 1013.8 |
| 20260904003520 | 26 | 0 | 0.0 | 3.2 | 0.00 | 1.40 | 1.40 | 97 | 1013.8 |
| 20260904003035 | 26 | 0 | 0.0 | 3.2 | 0.00 | 1.40 | 1.40 | 97 | 1013.8 |
| 20260904002522 | 26 | 0 | 0.0 | 0.0 | 0.00 | 1.40 | 1.40 | 96 | 1013.7 |
| 20260904002021 | 26 | 0 | 0.0 | 0.0 | 0.00 | 1.40 | 1.40 | 96 | 1013.6 |
| 20260904001554 | 27 | 0 | 0.0 | 0.0 | 0.00 | 1.40 | 1.40 | 96 | 1013.4 |
| 20260904001022 | 27 | 0 | 0.0 | 0.0 | 0.00 | 1.40 | 1.40 | 95 | 1013.2 |
| 20260904000522 | 27 | 0 | 0.0 | 0.0 | 0.00 | 1.40 | 1.40 | 95 | 1013.2 |
| 20260904000040 | 27 | 0 | 0.0 | 0.0 | 0.00 | 1.40 | 1.40 | 94 | 1013.2 |
| 20260903235519 | 27 | 0 | 0.0 | 0.0 | 0.00 | 1.40 | 1.40 | 94 | 1013.2 |
| 20260903235016 | 27 | 0 | 0.0 | 0.0 | 0.00 | 1.40 | 1.40 | 94 | 1013.1 |
| 20260903234539 | 27 | 0 | 0.0 | 1.6 | 0.00 | 1.40 | 1.40 | 93 | 1013.0 |
| 20260903234021 | 27 | 0 | 0.0 | 1.6 | 0.00 | 1.40 | 1.40 | 93 | 1013.0 |
| 20260903233523 | 28 | 0 | 0.0 | 1.6 | 0.00 | 1.40 | 1.40 | 92 | 1013.2 |
| 20260903233042 | 28 | 0 | 0.0 | 1.6 | 0.00 | 1.40 | 1.40 | 92 | 1013.1 |
| 20260903232524 | 28 | 0 | 0.0 | 0.0 | 0.00 | 1.40 | 1.40 | 92 | 1013.0 |
| 20260903232021 | 28 | 0 | 0.0 | 0.0 | 0.00 | 1.40 | 1.40 | 92 | 1012.9 |
| 20260903231540 | 28 | 0 | 0.0 | 0.0 | 0.00 | 1.40 | 1.40 | 90 | 1012.9 |
| 20260903231020 | 28 | 0 | 0.0 | 0.0 | 0.00 | 1.40 | 1.40 | 90 | 1012.9 |
| 20260903230523 | 28 | 0 | 0.0 | 1.6 | 0.00 | 1.40 | 1.40 | 91 | 1012.9 |
| 20260903230040 | 28 | 0 | 0.0 | 1.6 | 0.00 | 1.40 | 1.40 | 90 | 1012.9 |
| 20260903225521 | 29 | 0 | 0.0 | 0.0 | 0.00 | 1.40 | 1.40 | 89 | 1012.8 |
| 20260903225020 | 29 | 0 | 0.0 | 0.0 | 0.00 | 1.40 | 1.40 | 89 | 1012.7 |
| 20260903224541 | 29 | 0 | 0.0 | 1.6 | 0.00 | 1.40 | 1.40 | 88 | 1012.5 |
| 20260903224020 | 29 | 0 | 0.0 | 3.2 | 0.00 | 1.40 | 1.40 | 87 | 1012.5 |
| 20260903223523 | 29 | 0 | 0.0 | 3.2 | 0.00 | 1.40 | 1.40 | 87 | 1012.4 |
| 20260903223042 | 30 | 0 | 0.0 | 0.0 | 0.00 | 1.40 | 1.40 | 87 | 1012.5 |
| 20260903222521 | 30 | 0 | 0.0 | 1.6 | 0.00 | 1.40 | 1.40 | 87 | 1012.4 |
| 20260903222025 | 30 | 0 | 0.0 | 1.6 | 0.00 | 1.40 | 1.40 | 87 | 1012.5 |
| 20260903221535 | 30 | 0 | 0.0 | 1.6 | 0.00 | 1.40 | 1.40 | 86 | 1012.4 |
| 20260903221020 | 30 | 0 | 0.0 | 1.6 | 0.00 | 1.40 | 1.40 | 86 | 1012.5 |
| 20260903220519 | 30 | 271 | 0.0 | 0.0 | 0.00 | 1.40 | 1.40 | 86 | 1012.7 |
| 20260903220040 | 30 | 0 | 0.0 | 0.0 | 0.00 | 1.40 | 1.40 | 88 | 1012.5 |
| 20260903215521 | 30 | 0 | 0.0 | 1.6 | 0.00 | 1.40 | 1.40 | 87 | 1012.5 |
| 20260903215020 | 30 | 0 | 0.0 | 1.6 | 0.00 | 1.40 | 1.40 | 86 | 1012.4 |
| 20260903214541 | 30 | 0 | 0.0 | 1.6 | 0.00 | 1.40 | 1.40 | 88 | 1012.4 |
| 20260903214021 | 30 | 0 | 0.0 | 1.6 | 0.00 | 1.40 | 1.40 | 87 | 1012.3 |
| 20260903213521 | 30 | 0 | 0.0 | 1.6 | 0.00 | 1.40 | 1.40 | 86 | 1012.2 |
| 20260903213049 | 30 | 0 | 0.0 | 1.6 | 0.00 | 1.40 | 1.40 | 86 | 1012.3 |
| 20260903212526 | 30 | 40 | 0.0 | 3.2 | 0.00 | 1.40 | 1.40 | 87 | 1012.2 |
| 20260903212021 | 30 | 0 | 0.0 | 3.2 | 0.00 | 1.40 | 1.40 | 86 | 1012.1 |
| 20260903211541 | 30 | 0 | 0.0 | 3.2 | 0.00 | 1.40 | 1.40 | 87 | 1012.1 |
| 20260903211019 | 30 | 0 | 0.0 | 3.2 | 0.00 | 1.40 | 1.40 | 86 | 1012.0 |
| 20260903210520 | 30 | 0 | 0.0 | 3.2 | 0.00 | 1.40 | 1.40 | 86 | 1011.9 |
| 20260903210041 | 30 | 0 | 0.0 | 3.2 | 0.00 | 1.40 | 1.40 | 85 | 1012.0 |
| 20260903205523 | 30 | 0 | 0.0 | 3.2 | 0.00 | 1.40 | 1.40 | 85 | 1012.0 |
| 20260903205020 | 30 | 0 | 0.0 | 3.2 | 0.00 | 1.40 | 1.40 | 83 | 1012.0 |
| 20260903204541 | 31 | 0 | 0.0 | 1.6 | 0.00 | 1.40 | 1.40 | 85 | 1012.0 |
| 20260903204017 | 31 | 0 | 0.0 | 3.2 | 0.00 | 1.40 | 1.40 | 84 | 1012.1 |
| 20260903203520 | 31 | 0 | 0.0 | 3.2 | 0.00 | 1.40 | 1.40 | 85 | 1012.2 |
| 20260903203044 | 31 | 76 | 0.0 | 1.6 | 0.00 | 1.40 | 1.40 | 83 | 1012.2 |
| 20260903202520 | 31 | 0 | 0.0 | 1.6 | 0.00 | 1.40 | 1.40 | 82 | 1012.3 |
| 20260903202022 | 31 | 0 | 0.0 | 4.8 | 0.00 | 1.40 | 1.40 | 84 | 1012.5 |
| 20260903201535 | 31 | 0 | 0.0 | 4.8 | 0.00 | 1.40 | 1.40 | 83 | 1012.5 |
| 20260903201021 | 31 | 352 | 0.0 | 3.2 | 0.00 | 1.40 | 1.40 | 84 | 1012.6 |
| 20260903200520 | 31 | 0 | 0.0 | 3.2 | 0.00 | 1.40 | 1.40 | 86 | 1012.7 |
| 20260903200039 | 31 | 5 | 0.0 | 3.2 | 0.00 | 1.40 | 1.40 | 84 | 1012.7 |
| 20260903195519 | 31 | 0 | 0.0 | 4.8 | 0.00 | 1.40 | 1.40 | 87 | 1012.8 |
| 20260903195019 | 31 | 0 | 0.0 | 4.8 | 0.00 | 1.40 | 1.40 | 85 | 1012.9 |
| 20260903194538 | 31 | 4 | 0.0 | 3.2 | 0.00 | 1.40 | 1.40 | 83 | 1013.0 |
| 20260903194025 | 31 | 0 | 0.0 | 1.6 | 0.00 | 1.40 | 1.40 | 85 | 1013.0 |